AirNav   SIMCOM
 
 364 users online  

38AR Williams Field Airport
Siloam Springs, Arkansas, USA

GOING TO SILOAM SPRINGS?


FAA INFORMATION EFFECTIVE 14 SEPTEMBER 2017

Location

FAA Identifier: 38AR
Lat/Long: 36-07-07.7800N / 094-28-05.5700W
36-07.129667N / 094-28.092833W
36.1188278 / -94.4682139
(estimated)
Elevation: 1150 ft. / 351 m (estimated)
From city: 5 miles SE of SILOAM SPRINGS, AR
Time zone: UTC -5 (UTC -6 during Standard Time)
Zip code: 72761

Airport Operations

Airport use: Private use. Permission required prior to landing
Activation date: 10/2005
Control tower: no
ARTCC: MEMPHIS CENTER
FSS: JONESBORO FLIGHT SERVICE STATION
Attendance: UNATNDD
Segmented circle: no

Airport Communications

WX AWOS-3 at SLG (5 nm N): 118.375 (479-524-9893)
WX ASOS at XNA (12 nm NE): 119.425 (479-203-0109)
WX ASOS at FYV (16 nm SE): 119.575 (479-442-5237)
WX AWOS-3 at ASG (17 nm E): 124.675 (479-750-2967)
WX AWOS-3 at VBT (18 nm NE): 134.975 (479-273-9198)

Nearby radio navigation aids

VOR radial/distance  VOR name  Freq  Var
DAKr282/13.9DRAKE VOR/DME115.2507E
RZCr241/18.5RAZORBACK VORTAC116.4004E

 
NDB name  Hdg/Dist  Freq  Var  ID
SILOAM SPRINGS163/4.328404ESLG ... .-.. --.
TAHLEQUAH061/28.521505ETQH - --.- ....

Airport Services

Runway Information

Runway 18/36

Dimensions: 2000 x 50 ft. / 610 x 15 m
Surface: turf
RUNWAY 18  RUNWAY 36
Traffic pattern: leftleft

Airport Ownership and Management from official FAA records

Ownership: Privately-owned
Owner: DARRELL WILLIAMS
2161 ALPINE ST
FAYETTEVILLE, AR 72704
Phone 479-444-9466
Manager: DARRELL WILLIAMS
19414 OLD NORWOOD CHURCH RD
SILOAM SPRINGS, AR 72761
Phone 479-444-9466

Airport Operational Statistics

Aircraft based on the field: 1
Single engine airplanes: 1
    

Instrument Procedures

There are no published instrument procedures at 38AR.

Some nearby airports with instrument procedures:

KSLG - Smith Field Airport (5 nm N)
KXNA - Northwest Arkansas Regional Airport (12 nm NE)
5M5 - Crystal Lake Airport (14 nm N)
KFYV - Drake Field Airport (16 nm SE)
KASG - Springdale Municipal Airport (17 nm E)
KVBT - Bentonville Municipal Airport/Louise M Thaden Field (18 nm NE)
 
Loc | Ops | Rwys | IFR | FBO | Links
Com | Nav | Svcs | Stats | Notes

Fly Arkansas
AirBoss

 
Area around 38AR (Williams Field Airport)
 
Road maps at: MapQuest Bing Google
 
Aerial photo
No photo
 
Sectional chart

 
Airport distance calculator
Flying to Williams Field Airport? Find the distance to fly.

From to 38AR

Sunrise and sunset
Times for 23-Sep-2017
 Local
(UTC-5)
 Zulu
(UTC)
Morning civil twilight06:4211:42
Sunrise07:0812:08
Sunset19:1300:13
Evening civil twilight19:3900:39

Current date and time
Zulu (UTC)  23-Sep-2017 10:07:36
Local (UTC-5)  23-Sep-2017 05:07:36
 
METAR
KSLG 
5nm N 
230956Z AUTO 09004KT 10SM CLR 20/19 RMK AO2 SLPNO T02000189 $
KXNA 
13nm NE 
230953Z AUTO 00000KT 9SM CLR 19/18 A3002 RMK AO2 SLP148 T01890183
KFYV 
16nm SE 
230958Z AUTO 00000KT 3/4SM BR CLR 17/17 A3001 RMK AO2 VIS 1/4V4 T01670167 $
KASG 
17nm E 
230148Z 13004KT 10SM SKC 26/20 A3001
KVBT 
18nm NE 
230956Z AUTO 10003KT 10SM CLR 21/19 A3003 RMK AO2 SLP159 T02110189
TAF
KXNA 
13nm NE 
230520Z 2306/2406 VRB02KT P6SM FEW250 FM231600 16007KT P6SM SCT050 FM240100 13004KT P6SM FEW060 FEW250
KFYV 
16nm SE 
230520Z 2306/2406 VRB02KT P6SM FEW250 FM231600 16006KT P6SM SCT050 FM240100 13003KT P6SM FEW060 FEW250
NOTAMs
Click for the latest NOTAMs
NOTAMs are issued by the DoD/FAA and will open in a separate window not controlled by AirNav.

 

 
 

Would you like to see your business listed on this page?

 If your business provides an interesting product or service to pilots, flight crews, aircraft, or users of the Williams Field Airport, you should consider listing it here.  To start the listing process, click on the button below
 
Add a business
 

Other Pages about Williams Field Airport

Update a link
 
Copyright © AirNav, LLC. All rights reserved. Privacy Policy  Contact